Location: Newark
(45.2500°N, 7.5833°E)
Time: 18:48:54
(UTC+00:00)

A-11 Canister half - Pass Details

Date: 29 January 2020
Orbit: 1525 x 1684 km, 47.3° (Epoch: 17 February)

Event Time Altitude Azimuth Distance (km) Brightness Sun altitude
Rises 21:00:45 0° 290° (WNW) 4,720 12.3 -46.7°
Reaches altitude 10° 21:03:47 10° 289° (WNW) 3,752 11.6 -47.2°
Enters shadow 21:09:19 41° 280° (W) 2,165 9.9 -48.0°
